Home   Weather   Cadiz   Past weeks

Flag for Spain Past Weather in Cadiz, Cádiz, Spain — Yesterday and Last 2 Weeks

Now
64 °F

Clear.


Feels Like: 64 °F
Forecast: 70 / 82 °F
Wind: 3 mph from Northeast

Location: Rota Airport

Current Time: Sep 27, 2016 at 9:07:27 AM

Latest Report: Sep 27, 2016 at 8:00 AM


Visibility: 10 mi

Pressure: 30.12 "Hg

Humidity: 88%

Dew Point: 61 °F

Location of CadizLocation

Past Weather in Cadiz — Graph

°F

Cadiz Temperature Yesterday

Maximum temperature yesterday: 84 °F (at 4:00 PM)
Minimum temperature yesterday: 66 °F (at 8:00 AM)
Average temperature yesterday: 74 °F

High & Low Weather Summary for the Past Weeks

 TemperatureHumidityPressure
High88 °F (Sep 17, 2:00 PM)100% (Sep 21, 8:00 AM)30.21 "Hg (Sep 21, 8:00 AM)
Low55 °F (Sep 15, 7:00 AM)24% (Sep 17, 5:00 PM)29.89 "Hg (Sep 12, 8:00 AM)
Average71 °F72%30.06 "Hg
* Reported Sep 12 8:00 AM — Sep 27 8:00 AM, Cadiz, Weather by CustomWeather, © 2016

Note: Actual official high and low records may vary slightly from our data, if they occured in-between our weather recording intervals... More about our weather records

Advertising

Cadiz Weather History for the Previous 24 Hours

Scroll right to see more
 ConditionsComfort  
Time TempWeatherWind HumidityBarometerVisibility
8:00 AM
Tue, Sep 27
64 °FClear.3 mph88%30.12 "Hg10 mi
7:00 AM64 °FClear.3 mph94%30.09 "Hg10 mi
6:00 AM66 °FClear.No wind88%30.09 "Hg10 mi
5:00 AM68 °FClear.1 mph83%30.09 "Hg10 mi
4:00 AM70 °FClear.No wind83%30.09 "Hg10 mi
3:00 AM72 °FClear.3 mph83%30.09 "Hg10 mi
2:00 AM72 °FClear.2 mph78%30.09 "Hg10 mi
1:00 AM72 °FClear.2 mph83%30.12 "Hg10 mi
12:00 AM72 °FClear.1 mph88%30.12 "Hg10 mi
11:00 PM
Mon, Sep 26
73 °FClear.1 mph78%30.12 "Hg10 mi
10:00 PM73 °FClear.2 mph78%30.09 "Hg10 mi
9:00 PM73 °FClear.3 mph78%30.07 "Hg10 mi
8:00 PM75 °FSunny.8 mph74%30.07 "Hg10 mi
7:00 PM79 °FPassing clouds.9 mph61%30.04 "HgN/A
6:00 PM81 °FPassing clouds.9 mph58%30.04 "HgN/A
5:00 PM81 °FPassing clouds.8 mph58%30.04 "HgN/A
4:00 PM84 °FPassing clouds.6 mph48%30.07 "HgN/A
3:00 PM81 °FPassing clouds.6 mph54%30.07 "HgN/A
2:00 PM81 °FPassing clouds.8 mph54%30.09 "HgN/A
1:00 PM81 °FSunny.3 mph54%30.09 "Hg10 mi
12:00 PM79 °FPassing clouds.6 mph54%30.09 "HgN/A
11:00 AM75 °FPassing clouds.3 mph65%30.09 "HgN/A
10:00 AM73 °FSunny.2 mph69%30.07 "Hg10 mi
9:00 AM66 °FSunny.No wind83%30.04 "Hg10 mi
Weather by CustomWeather, © 2016

See weather overviewHow to use our weather pages